Content
SEND FEEDBACK

Daily
Averages
Monthly
Summary
United States of America

MANGILAO, GUAM


Home > North America > United States > Guam
Elevation: 18 meters     Latitude: 13 27N     Longitude: 144 49E

WEATHER
 
SELECT A DAY
Number of Records: 342,166;   Date Range: 1/1/95 - 8/12/14
 
SHARE

PRINT THIS DATA

[ ← Previous Day ]
WEATHER ALMANAC - 14 JUNE, 2013
[ Next Day → ]
[ °F ]   °C
Weather ElementAverageHighLow
Temperature27.1 °C30 °C (2:16 pm)25 °C (2:49 pm)
Dewpoint25.1 °C26.1 °C (8:55 am)23 °C (6:18 pm)
Humidity89.4 %100 % (6:19 am)79 % (2:16 pm)
Barometer1008.8 hPa1010.5 hPa (10:34 pm)1007.1 hPa (4:34 am)
Wind Speed20 km/h37 km/h (2:41 pm)
Wind Gust55.5 km/h (2:39 pm)
Weather ElementAverage
Visibility13.7 km
Wind DirectionESE (97.2 °)

Weather ElementTotal
Precipitation4.32 mm
Cooling Degree Days9.2 (Base 18.3)
Growing Degree Days17.5 (Base 10)
Averaged from 123 records on 14 June, 2013
WEATHER CONDITIONS BREAKOUT
WIND DIRECTION BREAKOUT
WEATHER BY HOUR - 14 JUNE, 2013
[ °F ]   °C
Local TimeTemperatureDewpointHumidityBarometerVisibilityWind DirectionWind SpeedGust SpeedPrecipitationEventsConditions
12:21 AM26 °C25 °C94 %1008.8 hPa16.1 kmEast (100°)13 km/hMostly Cloudy
12:24 AM26 °C25 °C94 %1008.8 hPa16.1 kmEast (90°)14.8 km/hScattered Clouds
12:55 AM26.4 °C24.4 °C89 %1008.1 hPa16.1 kmEast (100°)14.8 km/hClear
1:55 AM26.4 °C24.6 °C90 %1007.8 hPa16.1 kmEast (90°)18.5 km/hPartly Cloudy
2:08 AM26 °C25 °C94 %1007.8 hPa16.1 kmEast (90°)13 km/hMostly Cloudy
2:10 AM27 °C25 °C89 %1007.8 hPa16.1 kmEast (80°)14.8 km/hMostly Cloudy
2:14 AM27 °C25 °C89 %1007.8 hPa16.1 kmEast (80°)14.8 km/hMostly Cloudy
2:23 AM26 °C25 °C94 %1007.8 hPa16.1 kmEast (90°)18.5 km/hScattered Clouds
2:31 AM27 °C25 °C89 %1007.8 hPa16.1 kmEast (100°)13 km/hMostly Cloudy
2:39 AM27 °C25 °C89 %1007.5 hPa16.1 kmEast (100°)13 km/hMostly Cloudy
2:41 AM27 °C25 °C89 %1007.5 hPa16.1 kmEast (100°)11.1 km/hMostly Cloudy
2:45 AM26 °C25 °C94 %1007.5 hPa16.1 kmEast (100°)13 km/hScattered Clouds
2:55 AM26.5 °C25.1 °C92 %1007.5 hPa16.1 kmEast (90°)16.7 km/hScattered Clouds
3:10 AM27 °C25 °C89 %1007.5 hPa16.1 kmEast (90°)16.7 km/hMostly Cloudy
3:11 AM27 °C25 °C89 %1007.5 hPa16.1 kmEast (90°)16.7 km/hMostly Cloudy
3:14 AM27 °C25 °C89 %1007.5 hPa16.1 kmEast (80°)16.7 km/hMostly Cloudy
3:17 AM27 °C25 °C89 %1007.5 hPa16.1 kmEast (90°)16.7 km/hMostly Cloudy
3:20 AM27 °C25 °C89 %1007.5 hPa16.1 kmEast (90°)14.8 km/hMostly Cloudy
3:23 AM27 °C25 °C89 %1007.5 hPa16.1 kmEast (90°)16.7 km/hMostly Cloudy
3:46 AM27 °C25 °C89 %1007.5 hPa16.1 kmEast (90°)16.7 km/hScattered Clouds
3:52 AM27 °C25 °C89 %1007.5 hPa16.1 kmEast (90°)18.5 km/hMostly Cloudy
3:55 AM26.6 °C24.9 °C90 %1007.5 hPa16.1 kmEast (90°)16.7 km/hMostly Cloudy
4:01 AM27 °C25 °C89 %1007.5 hPa16.1 kmEast (100°)18.5 km/hScattered Clouds
4:34 AM27 °C25 °C89 %1007.1 hPa16.1 kmEast (90°)18.5 km/hMostly Cloudy
4:39 AM27 °C25 °C89 %1007.1 hPa16.1 kmEast (90°)18.5 km/hScattered Clouds
4:55 AM26.6 °C25.1 °C91 %1007.5 hPa16.1 kmEast (90°)18.5 km/hScattered Clouds
5:00 AM27 °C25 °C89 %1007.5 hPa16.1 kmEast (80°)22.2 km/hMostly Cloudy
5:02 AM27 °C25 °C89 %1007.5 hPa16.1 kmENE (70°)22.2 km/hScattered Clouds
5:39 AM26 °C25 °C94 %1007.8 hPa16.1 kmEast (100°)16.7 km/hMostly Cloudy
5:44 AM26 °C25 °C94 %1007.8 hPa16.1 kmESE (110°)16.7 km/hMostly Cloudy
5:55 AM26.2 °C24.8 °C92 %1007.8 hPa16.1 kmEast (100°)13 km/hMostly Cloudy
6:19 AM26 °C26 °C100 %1007.8 hPa16.1 kmEast (90°)13 km/hMostly Cloudy
6:24 AM26 °C26 °C100 %1007.8 hPa16.1 kmEast (90°)13 km/hMostly Cloudy
6:25 AM26 °C26 °C100 %1007.8 hPa16.1 kmEast (80°)13 km/hMostly Cloudy
6:29 AM27 °C26 °C94 %1008.1 hPa16.1 kmEast (80°)13 km/hMostly Cloudy
6:33 AM27 °C26 °C94 %1008.1 hPa16.1 kmEast (80°)14.8 km/hOvercast
6:39 AM27 °C25 °C89 %1008.1 hPa16.1 kmEast (80°)20.4 km/hMostly Cloudy
6:49 AM27 °C25 °C89 %1008.5 hPa16.1 kmEast (90°)16.7 km/hScattered Clouds
6:55 AM26.9 °C25.5 °C92 %1008.5 hPa16.1 kmEast (90°)18.5 km/hScattered Clouds
7:55 AM27.9 °C25.3 °C86 %1009.1 hPa16.1 kmEast (90°)24.1 km/hPartly Cloudy
8:17 AM28 °C26 °C89 %1009.1 hPa16.1 kmEast (90°)20.4 km/hMostly Cloudy
8:31 AM28 °C26 °C89 %1009.1 hPa16.1 kmEast (100°)18.5 km/hScattered Clouds
8:55 AM29 °C26.1 °C84 %1009.1 hPa16.1 kmEast (90°)18.5 km/hScattered Clouds
8:56 AM29 °C26 °C84 %1009.1 hPa16.1 kmEast (100°)22.2 km/hMostly Cloudy
9:01 AM28 °C25 °C84 %1009.5 hPa4.8 kmEast (90°)35.2 km/h42.6 km/hRainHeavy Rain
9:02 AM28 °C25 °C84 %1009.5 hPa4 kmEast (90°)29.6 km/h42.6 km/hRainHeavy Rain
9:03 AM27 °C25 °C89 %1009.5 hPa3.2 kmEast (100°)22.2 km/h42.6 km/hRainHeavy Rain
9:04 AM27 °C25 °C89 %1009.5 hPa2.9 kmEast (90°)22.2 km/h42.6 km/hRainHeavy Rain
9:05 AM27 °C25 °C89 %1009.5 hPa2.4 kmEast (90°)22.2 km/h42.6 km/hRainHeavy Rain
9:06 AM27 °C25 °C89 %1009.5 hPa1.9 kmEast (90°)18.5 km/h42.6 km/hRainHeavy Rain
9:10 AM26 °C25 °C94 %1009.5 hPa2.4 kmEast (100°)14.8 km/hRainRain
9:12 AM27 °C25 °C89 %1009.5 hPa3.2 kmEast (100°)14.8 km/hRainLight Rain
9:13 AM27 °C25 °C89 %1009.5 hPa4 kmEast (90°)16.7 km/hRainLight Rain
9:14 AM27 °C25 °C89 %1009.5 hPa4.8 kmEast (90°)16.7 km/hRainLight Rain
9:18 AM27 °C26 °C94 %1009.5 hPa16.1 kmEast (90°)18.5 km/hMostly Cloudy
9:19 AM27 °C26 °C94 %1009.5 hPa16.1 kmEast (100°)18.5 km/hMostly Cloudy
9:55 AM28 °C25.6 °C87 %1009.1 hPa14.5 kmEast (90°)25.9 km/h1.78 mmScattered Clouds
9:57 AM28 °C26 °C89 %1009.1 hPa14.5 kmEast (90°)24.1 km/hLight Drizzle
9:58 AM28 °C26 °C89 %1009.1 hPa14.5 kmEast (90°)27.8 km/hLight Drizzle
10:00 AM28 °C26 °C89 %1009.1 hPa14.5 kmEast (90°)27.8 km/hLight Drizzle
10:05 AM29 °C26 °C84 %1009.1 hPa16.1 kmEast (100°)20.4 km/hMostly Cloudy
10:32 AM29 °C26 °C84 %1008.8 hPa16.1 kmEast (100°)24.1 km/hMostly Cloudy
10:33 AM29 °C26 °C84 %1008.8 hPa16.1 kmEast (100°)27.8 km/hMostly Cloudy
10:42 AM29 °C26 °C84 %1008.8 hPa16.1 kmEast (100°)27.8 km/hMostly Cloudy
10:55 AM29.4 °C25.9 °C81 %1008.8 hPa16.1 kmEast (100°)24.1 km/h0 mmMostly Cloudy
11:06 AM28 °C25 °C84 %1009.1 hPa16.1 kmSE (130°)29.6 km/hOvercast
11:09 AM27 °C25 °C89 %1009.1 hPa16.1 kmSE (130°)25.9 km/hOvercast
11:10 AM27 °C25 °C89 %1009.1 hPa16.1 kmSE (130°)27.8 km/hOvercast
11:14 AM27 °C26 °C94 %1009.1 hPa16.1 kmESE (120°)25.9 km/hOvercast
11:15 AM27 °C26 °C94 %1009.1 hPa16.1 kmESE (120°)25.9 km/hOvercast
11:17 AM27 °C26 °C94 %1009.1 hPa16.1 kmSE (130°)27.8 km/h38.9 km/hOvercast
11:18 AM27 °C26 °C94 %1009.1 hPa16.1 kmSE (130°)25.9 km/hOvercast
11:34 AM28 °C25 °C84 %1009.1 hPa14.5 kmEast (100°)25.9 km/h40.7 km/hRainLight Rain
11:37 AM28 °C25 °C84 %1009.1 hPa14.5 kmESE (110°)25.9 km/hRainLight Rain
11:39 AM28 °C25 °C84 %1009.1 hPa14.5 kmESE (110°)24.1 km/hRainLight Rain
11:45 AM28 °C25 °C84 %1008.8 hPa16.1 kmEast (100°)22.2 km/hScattered Clouds
11:55 AM28.6 °C25.1 °C81 %1008.8 hPa16.1 kmEast (100°)25.9 km/h38.9 km/h0 mmPartly Cloudy
12:52 PM28 °C25 °C84 %1008.8 hPa16.1 kmEast (100°)24.1 km/hLight Drizzle
12:55 PM28.3 °C25.1 °C83 %1008.5 hPa16.1 kmESE (110°)18.5 km/h0 mmLight Drizzle
12:57 PM28 °C25 °C84 %1008.8 hPa16.1 kmESE (110°)18.5 km/hScattered Clouds
1:55 PM29.5 °C26 °C81 %1008.5 hPa16.1 kmESE (110°)22.2 km/h0 mmPartly Cloudy
2:06 PM29 °C26 °C84 %1008.1 hPa16.1 kmEast (100°)24.1 km/hMostly Cloudy
2:11 PM29 °C26 °C84 %1008.1 hPa16.1 kmESE (110°)22.2 km/hScattered Clouds
2:16 PM30 °C26 °C79 %1008.1 hPa16.1 kmEast (100°)22.2 km/hMostly Cloudy
2:39 PM27 °C25 °C89 %1008.5 hPa4 kmESE (110°)35.2 km/h55.5 km/hHaze
2:41 PM27 °C25 °C89 %1008.5 hPa2.9 kmESE (110°)37 km/h55.5 km/hOvercast
2:42 PM27 °C25 °C89 %1008.5 hPa1.9 kmESE (110°)35.2 km/h55.5 km/hOvercast
2:43 PM26 °C25 °C94 %1008.5 hPa1.6 kmESE (110°)33.3 km/h55.5 km/hOvercast
2:44 PM26 °C25 °C94 %1008.5 hPa1.6 kmESE (110°)29.6 km/h55.5 km/hOvercast
2:49 PM25 °C24 °C94 %1008.5 hPa1.9 kmESE (110°)24.1 km/hMostly Cloudy
2:51 PM25 °C24 °C94 %1008.5 hPa2.4 kmESE (110°)24.1 km/hMostly Cloudy
2:52 PM25 °C24 °C94 %1008.5 hPa4 kmESE (110°)25.9 km/hMostly Cloudy
2:53 PM25 °C24 °C94 %1008.1 hPa4.8 kmESE (120°)22.2 km/hMostly Cloudy
2:55 PM25.3 °C24.4 °C95 %1008.1 hPa6.4 kmESE (120°)24.1 km/h2.29 mmMostly Cloudy
3:01 PM25 °C24 °C94 %1008.1 hPa9.7 kmESE (120°)20.4 km/hScattered Clouds
3:55 PM27.4 °C25.1 °C87 %1007.8 hPa16.1 kmESE (110°)18.5 km/hClear
4:55 PM27.5 °C25.4 °C88 %1007.8 hPa16.1 kmEast (100°)20.4 km/hScattered Clouds
5:01 PM27 °C25 °C89 %1008.1 hPa16.1 kmEast (90°)14.8 km/hMostly Cloudy
5:07 PM28 °C25 °C84 %1008.1 hPa16.1 kmEast (100°)16.7 km/hScattered Clouds
5:19 PM28 °C25 °C84 %1008.1 hPa16.1 kmEast (90°)18.5 km/hMostly Cloudy
5:55 PM27.4 °C25.4 °C89 %1008.5 hPa16.1 kmEast (90°)20.4 km/hMostly Cloudy
6:08 PM27 °C25 °C89 %1008.8 hPa12.9 kmESE (110°)29.6 km/h38.9 km/hRainLight Rain
6:10 PM26 °C25 °C94 %1008.8 hPa6.4 kmESE (110°)24.1 km/h38.9 km/hRainRain
6:18 PM25 °C23 °C89 %1008.8 hPa8 kmESE (120°)22.2 km/hMostly Cloudy
6:20 PM25 °C23 °C89 %1009.1 hPa14.5 kmESE (120°)18.5 km/hScattered Clouds
6:35 PM25 °C23 °C89 %1009.1 hPa16.1 kmESE (120°)13 km/hPartly Cloudy
6:55 PM25.2 °C24 °C93 %1009.1 hPa16.1 kmEast (100°)7.4 km/h0.25 mmMostly Cloudy
7:55 PM26 °C24.1 °C89 %1009.8 hPa16.1 kmEast (80°)11.1 km/hClear
8:55 PM26.6 °C25.4 °C93 %1009.8 hPa16.1 kmEast (80°)14.8 km/hScattered Clouds
9:33 PM27 °C25 °C89 %1010.2 hPa16.1 kmEast (80°)13 km/hMostly Cloudy
9:55 PM26.8 °C25.6 °C93 %1010.2 hPa16.1 kmEast (80°)13 km/hOvercast
10:16 PM27 °C25 °C89 %1010.2 hPa16.1 kmEast (90°)16.7 km/hMostly Cloudy
10:19 PM27 °C25 °C89 %1010.2 hPa16.1 kmEast (90°)16.7 km/hScattered Clouds
10:20 PM27 °C25 °C89 %1010.2 hPa16.1 kmEast (90°)16.7 km/hMostly Cloudy
10:23 PM27 °C25 °C89 %1010.2 hPa16.1 kmEast (90°)14.8 km/hScattered Clouds
10:25 PM27 °C25 °C89 %1010.2 hPa16.1 kmEast (80°)14.8 km/hMostly Cloudy
10:34 PM27 °C25 °C89 %1010.5 hPa16.1 kmEast (80°)16.7 km/hScattered Clouds
10:36 PM27 °C25 °C89 %1010.5 hPa16.1 kmEast (80°)16.7 km/hMostly Cloudy
10:38 PM27 °C25 °C89 %1010.5 hPa16.1 kmEast (80°)20.4 km/hScattered Clouds
10:55 PM26.9 °C25.3 °C91 %1010.5 hPa16.1 kmEast (80°)16.7 km/hScattered Clouds
11:24 PM27 °C25 °C89 %1010.2 hPa16.1 kmEast (90°)14.8 km/hMostly Cloudy
11:35 PM27 °C25 °C89 %1010.2 hPa16.1 kmEast (90°)16.7 km/hScattered Clouds
11:55 PM26.7 °C25.3 °C92 %1009.8 hPa16.1 kmEast (80°)14.8 km/hPartly Cloudy
Hourly data recorded from PGUA, located 0 kilometers away from Mangilao, Guam







STORIES FROM OUR PARTNERS